FW9330 Weather Reports


time (UTC)temp
C
wind
direction
speed
KPH
gust
KPH
rain 1hr
cm
rain 24hr
cm
rain mn
cm
humidity
%
barometer
mb
20260509135053 9 244 3.2 4.8 0.00 0.30 0.30 99 1011.7
20260509134549 10 247 4.8 8.0 0.00 0.30 0.30 99 1011.5
20260509134047 10 270 3.2 3.2 0.13 0.30 0.30 99 1011.8
20260509133544 10 269 3.2 4.8 0.00 0.28 0.28 99 1011.7
20260509133042 9 264 4.8 4.8 0.18 0.28 0.28 99 1011.7
20260509132540 9 296 4.8 4.8 0.18 0.28 0.28 99 1011.8
20260509132038 9 260 1.6 1.6 0.00 0.25 0.25 99 1011.9
20260509131533 9 239 3.2 4.8 0.00 0.25 0.25 99 1011.7
20260509131031 9 255 4.8 4.8 0.18 0.25 0.25 99 1012.1
20260509130526 9 270 3.2 4.8 0.18 0.25 0.25 99 1012.0
20260509130023 9 213 4.8 9.7 0.00 0.23 0.23 99 1011.9
20260509125520 9 230 6.4 11.3 0.13 0.23 0.23 99 1011.8
20260509125016 9 231 4.8 4.8 0.13 0.23 0.23 99 1012.0
20260509124513 9 272 1.6 1.6 0.18 0.20 0.20 99 1012.0
20260509124010 9 279 1.6 1.6 0.18 0.20 0.20 99 1011.9
20260509123508 9 271 3.2 3.2 0.00 0.18 0.18 99 1011.8
20260509123004 9 239 3.2 3.2 0.00 0.18 0.18 99 1011.7
20260509122500 9 229 3.2 3.2 0.00 0.18 0.18 99 1011.8
20260509121957 8 221 3.2 4.8 0.13 0.18 0.18 99 1011.9
20260509121454 8 248 1.6 1.6 0.13 0.18 0.18 99 1011.7
20260509120952 8 283 1.6 1.6 0.13 0.18 0.18 99 1011.9
20260509120450 8 274 3.2 3.2 0.00 0.15 0.15 99 1011.9
20260509115948 8 301 6.4 9.7 0.18 0.15 0.15 99 1011.7
20260509115445 8 305 3.2 3.2 0.18 0.15 0.15 99 1011.9
20260509114942 8 223 1.6 3.2 0.00 0.13 0.13 99 1012.0
20260509114440 8 272 6.4 9.7 0.13 0.13 0.13 98 1012.0
20260509113939 8 225 1.6 3.2 0.13 0.13 0.13 98 1012.0
20260509113436 8 293 6.4 11.3 0.13 0.13 0.13 98 1011.9
20260509112933 8 278 3.2 3.2 0.00 0.10 0.10 98 1012.1
20260509112431 8 261 1.6 3.2 0.00 0.10 0.10 98 1012.0
20260509111927 8 227 6.4 8.0 0.00 0.10 0.10 98 1011.6
20260509111425 8 268 4.8 8.0 0.00 0.10 0.10 98 1011.9
20260509110922 8 261 3.2 4.8 0.00 0.10 0.10 98 1012.3
20260509110417 8 208 4.8 9.7 0.00 0.10 0.10 98 1011.8
20260509105916 8 284 1.6 3.2 0.00 0.10 0.10 98 1011.9
20260509105414 8 194 3.2 3.2 0.18 0.10 0.10 99 1012.2
20260509104911 8 274 4.8 4.8 0.18 0.10 0.10 98 1011.8
20260509104408 8 237 4.8 4.8 0.00 0.08 0.08 98 1012.3
20260509103905 8 270 3.2 3.2 0.00 0.08 0.08 98 1012.1
20260509103402 8 274 1.6 1.6 0.13 0.08 0.08 98 1012.2
20260509102901 8 216 4.8 8.0 0.13 0.08 0.08 97 1011.9
20260509102358 8 195 1.6 1.6 0.00 0.05 0.05 97 1012.1
20260509101853 8 277 4.8 4.8 0.00 0.05 0.05 96 1012.0
20260509101349 8 192 3.2 4.8 0.18 0.05 0.05 96 1012.0
20260509100848 8 247 1.6 1.6 0.18 0.05 0.05 95 1012.3
20260509100344 8 216 3.2 4.8 0.00 0.03 0.03 94 1012.4
20260509095841 8 279 1.6 3.2 0.00 0.03 0.03 93 1012.1
20260509095339 8 285 3.2 4.8 0.00 0.03 0.03 93 1012.2
20260509094836 8 274 1.6 1.6 0.00 0.03 0.03 93 1012.3
20260509094332 8 258 1.6 1.6 0.00 0.03 0.03 93 1012.0
20260509093830 8 184 4.8 4.8 0.13 0.03 0.03 94 1012.1
20260509093326 8 221 3.2 3.2 0.13 0.03 0.03 95 1012.2
20260509092825 7 274 0.0 0.0 0.00 0.00 0.00 95 1012.1
20260509092323 7 263 0.0 1.6 0.00 0.00 0.00 95 1011.9
20260509091821 7 290 1.6 3.2 0.00 0.00 0.00 96 1012.2
20260509091317 7 242 3.2 3.2 0.00 0.00 0.00 96 1012.1
20260509090815 7 281 1.6 1.6 0.00 0.00 0.00 96 1012.1
20260509090312 7 189 4.8 8.0 0.00 0.00 0.00 97 1011.8
20260509085809 7 275 0.0 0.0 0.00 0.00 0.00 97 1011.7
20260509085307 7 267 0.0 0.0 0.00 0.00 0.00 96 1011.7
20260509084803 7 279 0.0 0.0 0.00 0.00 0.00 96 1011.6
20260509084300 7 268 0.0 0.0 0.00 0.00 0.00 96 1011.8
20260509083757 7 268 0.0 0.0 0.00 0.00 0.00 95 1011.7
20260509083254 7 268 0.0 0.0 0.00 0.00 0.00 95 1011.6
20260509082750 8 272 0.0 0.0 0.00 0.00 0.00 95 1011.8
20260509082247 7 271 0.0 0.0 0.00 0.00 0.00 95 1011.3
20260509081744 7 271 0.0 0.0 0.00 0.00 0.00 95 1011.6
20260509081242 7 271 0.0 0.0 0.00 0.00 0.00 95 1011.5
20260509080740 7 277 0.0 1.6 0.00 0.00 0.00 95 1011.3
20260509080237 7 273 0.0 0.0 0.00 0.00 0.00 96 1011.6
20260509075735 7 267 0.0 0.0 0.00 0.00 0.00 97 1011.5
20260509075232 7 270 0.0 0.0 0.00 0.00 0.00 97 1011.5
20260509074729 7 270 0.0 0.0 0.00 0.00 0.00 98 1011.3
20260509074227 7 270 0.0 0.0 0.00 0.00 0.00 97 1011.5
20260509073723 7 270 0.0 0.0 0.00 0.00 0.00 97 1011.3
20260509073219 7 270 0.0 0.0 0.00 0.00 0.00 97 1011.2
20260509072716 7 270 0.0 0.0 0.00 0.00 0.00 97 1011.6
20260509072213 7 270 0.0 0.0 0.00 0.00 0.00 97 1011.5
20260509071709 7 270 0.0 0.0 0.00 0.00 0.00 97 1011.5
20260509071207 7 270 0.0 0.0 0.00 0.00 0.00 97 1011.3
20260509070704 7 269 0.0 0.0 0.00 0.00 0.00 97 1011.6
20260509070200 7 269 0.0 0.0 0.00 0.00 0.00 97 1011.8
20260509065656 7 273 0.0 0.0 0.00 0.00 0.00 96 1011.5
20260509065152 7 273 0.0 0.0 0.00 0.00 0.00 96 1011.7
20260509064649 7 268 0.0 0.0 0.00 0.00 0.00 97 1012.0
20260509064147 7 268 0.0 0.0 0.00 0.00 0.00 96 1012.1
20260509063644 7 273 0.0 0.0 0.00 0.00 0.00 97 1012.0
20260509063140 7 267 0.0 0.0 0.00 0.00 0.00 97 1012.5
20260509062638 7 266 0.0 0.0 0.00 0.00 0.00 97 1012.5
20260509062135 7 262 0.0 1.6 0.00 0.00 0.00 97 1012.3
20260509061631 7 270 0.0 0.0 0.00 0.00 0.00 98 1012.6
20260509061129 7 270 0.0 0.0 0.00 0.00 0.00 98 1012.5
20260509060626 7 270 0.0 0.0 0.00 0.00 0.00 98 1012.4
20260509060122 7 270 0.0 0.0 0.00 0.00 0.00 98 1012.8
20260509055618 7 270 0.0 0.0 0.00 0.00 0.00 98 1012.8
20260509055114 7 267 0.0 0.0 0.00 0.00 0.00 98 1013.1
20260509054611 7 270 0.0 0.0 0.00 0.00 0.00 98 1013.2
20260509054108 7 272 0.0 0.0 0.00 0.00 0.00 98 1013.1
20260509053607 7 262 0.0 1.6 0.00 0.00 0.00 98 1013.2
20260509053103 7 273 0.0 0.0 0.00 0.00 0.00 98 1013.2
20260509052601 7 267 0.0 0.0 0.00 0.00 0.00 98 1013.3
20260509052059 7 273 0.0 0.0 0.00 0.00 0.00 98 1013.2
20260509051557 7 275 0.0 0.0 0.00 0.00 0.00 98 1013.2
20260509051053 7 276 0.0 0.0 0.00 0.00 0.00 98 1013.4
20260509050550 7 261 0.0 0.0 0.00 0.00 0.00 98 1013.5
20260509050046 7 277 0.0 0.0 0.00 0.00 0.00 98 1013.3
20260509045544 7 277 0.0 0.0 0.00 0.00 0.00 98 1013.5
20260509045041 7 278 0.0 0.0 0.00 0.00 0.00 98 1013.7
20260509044538 7 279 0.0 0.0 0.00 0.00 0.00 98 1013.5
20260509044036 7 279 0.0 1.6 0.00 0.00 0.00 98 1013.6
20260509043532 7 280 0.0 0.0 0.00 0.00 0.00 98 1013.6
20260509043028 7 281 0.0 0.0 0.00 0.00 0.00 97 1013.5
20260509042524 7 279 0.0 0.0 0.00 0.00 0.00 97 1013.8
20260509042020 7 279 0.0 0.0 0.00 0.00 0.00 97 1013.9
20260509041517 7 275 0.0 0.0 0.00 0.00 0.00 97 1014.2
20260509041015 7 284 0.0 0.0 0.00 0.00 0.00 97 1014.1
20260509040513 7 284 0.0 0.0 0.00 0.00 0.00 96 1014.1
20260509040010 7 284 0.0 0.0 0.00 0.00 0.00 97 1014.3
20260509035507 7 284 0.0 0.0 0.00 0.00 0.00 97 1014.3
20260509035003 7 284 0.0 0.0 0.00 0.00 0.00 97 1014.2
20260509034502 7 284 0.0 0.0 0.00 0.00 0.00 96 1014.2
20260509033958 7 291 0.0 0.0 0.00 0.00 0.00 96 1014.3
20260509033454 7 291 0.0 0.0 0.00 0.00 0.00 97 1014.1
20260509032951 7 293 0.0 0.0 0.00 0.00 0.00 97 1014.2
20260509032449 7 289 0.0 0.0 0.00 0.00 0.00 97 1014.2
20260509031946 7 290 0.0 0.0 0.00 0.00 0.00 97 1014.1
20260509031443 7 282 0.0 0.0 0.00 0.00 0.00 97 1014.2
20260509030941 7 288 0.0 0.0 0.00 0.00 0.00 97 1014.2
20260509030439 7 284 0.0 0.0 0.00 0.00 0.00 97 1014.1
20260509025935 7 296 1.6 1.6 0.00 0.00 0.00 96 1014.3
20260509025431 8 290 0.0 0.0 0.00 0.00 0.00 96 1014.3
20260509024926 8 288 1.6 1.6 0.00 0.00 0.00 95 1014.1
20260509024423 8 288 0.0 1.6 0.00 0.00 0.00 94 1014.1
20260509023920 8 284 0.0 0.0 0.00 0.00 0.00 94 1013.9
20260509023417 8 289 0.0 0.0 0.00 0.00 0.00 93 1014.1
20260509022914 8 277 0.0 0.0 0.00 0.00 0.00 93 1014.0
20260509022411 8 289 0.0 0.0 0.00 0.00 0.00 92 1013.9
20260509021908 8 275 0.0 0.0 0.00 0.00 0.00 91 1013.9
20260509021405 8 284 0.0 0.0 0.00 0.00 0.00 91 1014.1
20260509020903 8 284 0.0 0.0 0.00 0.00 0.00 91 1013.8
20260509020401 8 278 0.0 0.0 0.00 0.00 0.00 91 1013.8
20260509015857 8 276 0.0 0.0 0.00 0.00 0.00 91 1013.8
20260509015356 8 276 0.0 0.0 0.00 0.00 0.00 91 1013.5
20260509014852 8 276 0.0 0.0 0.00 0.00 0.00 91 1013.7
20260509014349 8 276 0.0 0.0 0.00 0.00 0.00 90 1013.5
20260509013845 8 276 0.0 0.0 0.00 0.00 0.00 91 1013.6
20260509013342 8 275 0.0 0.0 0.00 0.00 0.00 90 1013.3
20260509012838 8 284 0.0 0.0 0.00 0.00 0.00 90 1013.7
20260509012335 8 276 0.0 0.0 0.00 0.00 0.00 90 1013.5
20260509011832 8 281 0.0 0.0 0.00 0.00 0.00 90 1013.8
20260509011330 8 274 0.0 0.0 0.00 0.00 0.00 90 1013.6
20260509010827 8 275 0.0 0.0 0.00 0.00 0.00 89 1013.7
20260509010325 8 274 0.0 0.0 0.00 0.00 0.00 89 1013.8
20260509005822 8 274 0.0 0.0 0.00 0.00 0.00 88 1013.8
20260509005320 8 276 0.0 0.0 0.00 0.00 0.00 87 1014.0
20260509004820 8 271 0.0 0.0 0.00 0.00 0.00 85 1013.8
20260509004316 8 270 0.0 0.0 0.00 0.00 0.00 85 1013.8
20260509003814 8 270 0.0 0.0 0.00 0.00 0.00 84 1013.6
20260509003312 8 270 0.0 0.0 0.00 0.00 0.00 83 1013.7
20260509002809 9 268 0.0 0.0 0.00 0.00 0.00 83 1013.5
20260509002306 9 268 0.0 0.0 0.00 0.00 0.00 82 1013.7
20260509001804 9 268 0.0 0.0 0.00 0.00 0.00 82 1013.7
20260509001259 9 268 0.0 0.0 0.00 0.00 0.00 82 1013.6
20260509000757 9 268 0.0 0.0 0.00 0.00 0.00 82 1013.5
20260509000256 9 268 0.0 0.0 0.00 0.00 0.00 80 1013.4
20260508235751 10 268 0.0 0.0 0.00 0.00 0.00 79 1013.4
20260508235248 10 268 0.0 0.0 0.00 0.00 0.00 81 1013.3
20260508234745 10 268 0.0 0.0 0.00 0.00 0.00 80 1013.4
20260508234241 10 270 0.0 0.0 0.00 0.00 0.00 79 1013.3
20260508233735 10 260 0.0 0.0 0.00 0.00 0.00 79 1013.5
20260508233233 10 274 0.0 0.0 0.00 0.00 0.00 78 1013.4
20260508232730 10 270 0.0 1.6 0.00 0.00 0.00 77 1013.5
20260508232226 10 252 1.6 1.6 0.00 0.00 0.00 77 1013.6
20260508231724 10 250 3.2 4.8 0.00 0.00 0.00 76 1013.4
20260508231221 10 262 1.6 1.6 0.00 0.00 0.00 75 1013.4
20260508230718 10 239 1.6 1.6 0.00 0.00 0.00 74 1013.6
20260508230214 10 264 3.2 3.2 0.00 0.00 0.00 74 1013.6
20260508225712 10 267 0.0 1.6 0.00 0.00 0.00 74 1013.5
20260508225208 11 281 1.6 1.6 0.00 0.00 0.00 74 1013.5
20260508224706 11 264 1.6 3.2 0.00 0.00 0.00 74 1013.5
20260508224203 11 269 0.0 1.6 0.00 0.00 0.00 74 1013.4
20260508223701 11 244 0.0 1.6 0.00 0.00 0.00 74 1013.3
20260508223158 11 253 1.6 1.6 0.00 0.00 0.00 74 1013.4
20260508222655 11 246 1.6 1.6 0.00 0.00 0.00 74 1013.4
20260508222152 11 264 0.0 1.6 0.00 0.00 0.00 75 1013.5
20260508221648 10 261 0.0 0.0 0.00 0.00 0.00 76 1013.4
20260508221144 10 241 1.6 3.2 0.00 0.00 0.00 75 1013.4
20260508220641 10 268 3.2 3.2 0.00 0.00 0.00 75 1013.4
20260508220138 11 237 1.6 3.2 0.00 0.00 0.00 75 1013.4
20260508215634 11 214 3.2 3.2 0.00 0.00 0.00 75 1013.2
20260508215131 11 247 3.2 3.2 0.00 0.00 0.00 76 1013.1
20260508214628 11 209 6.4 9.7 0.00 0.00 0.00 76 1013.4
20260508214125 10 264 3.2 8.0 0.00 0.00 0.00 76 1013.5
20260508213622 10 228 6.4 9.7 0.00 0.00 0.00 76 1013.8
20260508213118 11 271 1.6 1.6 0.00 0.00 0.00 76 1013.5
20260508212615 11 273 1.6 3.2 0.00 0.00 0.00 76 1013.7
20260508212111 11 225 3.2 3.2 0.00 0.00 0.00 76 1013.7
20260508211606 11 254 1.6 1.6 0.00 0.00 0.00 77 1013.7
20260508211103 11 275 4.8 8.0 0.00 0.00 0.00 75 1013.4
20260508210559 11 306 1.6 1.6 0.00 0.00 0.00 75 1013.6
20260508210057 11 257 3.2 4.8 0.00 0.00 0.00 73 1013.6
20260508205554 11 270 4.8 4.8 0.00 0.00 0.00 74 1013.6
20260508205050 11 262 8.0 14.5 0.00 0.00 0.00 75 1013.6
20260508204547 11 229 4.8 9.7 0.00 0.00 0.00 75 1013.5
20260508204043 11 294 3.2 3.2 0.00 0.00 0.00 76 1013.5
20260508203539 11 285 3.2 3.2 0.00 0.00 0.00 75 1013.8
20260508203035 11 234 1.6 3.2 0.00 0.00 0.00 74 1013.7
20260508202532 12 219 1.6 1.6 0.00 0.00 0.00 73 1013.8
20260508202029 12 250 1.6 3.2 0.00 0.00 0.00 73 1013.7
20260508201526 12 235 3.2 4.8 0.00 0.00 0.00 70 1013.6
20260508201022 12 253 3.2 4.8 0.00 0.00 0.00 68 1013.7
20260508200520 13 224 4.8 8.0 0.00 0.00 0.00 67 1013.6
20260508200015 13 246 4.8 9.7 0.00 0.00 0.00 67 1013.8
20260508195512 13 261 3.2 3.2 0.00 0.00 0.00 66 1013.8
20260508195008 13 210 3.2 8.0 0.00 0.00 0.00 68 1013.8
20260508194505 12 319 1.6 3.2 0.00 0.00 0.00 68 1014.0
20260508194003 12 194 4.8 4.8 0.00 0.00 0.00 68 1013.9
20260508193459 12 300 8.0 11.3 0.00 0.00 0.00 68 1014.0
20260508192955 12 276 1.6 1.6 0.00 0.00 0.00 68 1013.8
20260508192452 12 270 4.8 4.8 0.00 0.00 0.00 68 1013.8
20260508191949 12 245 4.8 9.7 0.00 0.00 0.00 68 1013.9
20260508191446 12 249 6.4 11.3 0.00 0.00 0.00 68 1013.8
20260508190943 12 247 3.2 3.2 0.00 0.00 0.00 67 1013.9
20260508190441 13 216 6.4 9.7 0.00 0.00 0.00 65 1014.0
20260508185936 13 272 4.8 9.7 0.00 0.00 0.00 60 1014.0
20260508185434 13 234 3.2 3.2 0.00 0.00 0.00 60 1013.9
20260508184931 13 283 3.2 4.8 0.00 0.00 0.00 60 1013.8
20260508184428 13 239 3.2 3.2 0.00 0.00 0.00 59 1013.8
20260508183925 13 163 8.0 11.3 0.00 0.00 0.00 58 1013.7
20260508183422 13 249 4.8 8.0 0.00 0.00 0.00 59 1013.9
20260508182917 13 316 3.2 3.2 0.00 0.00 0.00 62 1013.8
20260508182415 13 204 6.4 12.9 0.00 0.00 0.00 60 1014.0
20260508181909 13 265 1.6 3.2 0.00 0.00 0.00 59 1013.8
20260508181407 13 273 8.0 9.7 0.00 0.00 0.00 57 1013.9
20260508180904 13 270 9.7 16.1 0.00 0.00 0.00 57 1014.0
20260508180400 13 260 6.4 8.0 0.00 0.00 0.00 57 1013.7
20260508175856 13 243 4.8 4.8 0.00 0.00 0.00 57 1014.1
20260508175353 13 259 6.4 11.3 0.00 0.00 0.00 54 1013.9
20260508174851 13 214 6.4 9.7 0.00 0.00 0.00 53 1013.7
20260508174348 14 270 6.4 8.0 0.00 0.00 0.00 53 1013.9
20260508173839 13 277 1.6 3.2 0.00 0.00 0.00 55 1014.0
20260508173336 13 204 3.2 3.2 0.00 0.00 0.00 55 1014.2
20260508172832 14 278 3.2 3.2 0.00 0.00 0.00 56 1014.2
20260508172330 14 243 4.8 4.8 0.00 0.00 0.00 54 1014.2
20260508171826 14 280 1.6 1.6 0.00 0.00 0.00 53 1014.2
20260508171322 14 215 3.2 3.2 0.00 0.00 0.00 53 1014.2
20260508170819 13 215 1.6 3.2 0.00 0.00 0.00 57 1014.6
20260508170318 13 254 1.6 1.6 0.00 0.00 0.00 54 1014.3
20260508165814 14 221 3.2 3.2 0.00 0.00 0.00 54 1014.4
20260508165311 14 260 3.2 4.8 0.00 0.00 0.00 54 1014.4
20260508164807 13 217 4.8 4.8 0.00 0.00 0.00 56 1014.6
20260508164304 14 188 8.0 11.3 0.00 0.00 0.00 53 1014.9
20260508163802 14 208 6.4 8.0 0.00 0.00 0.00 55 1014.8
20260508163259 13 321 9.7 11.3 0.00 0.00 0.00 56 1014.9
20260508162755 14 244 6.4 11.3 0.00 0.00 0.00 54 1014.9
20260508162252 13 218 3.2 3.2 0.00 0.00 0.00 55 1014.5
20260508161749 14 17 3.2 3.2 0.00 0.00 0.00 55 1014.9
20260508161246 14 275 4.8 8.0 0.00 0.00 0.00 53 1014.9
20260508160744 13 289 1.6 1.6 0.00 0.00 0.00 58 1014.9
20260508160242 13 217 4.8 8.0 0.00 0.00 0.00 55 1015.1
20260508155738 13 206 1.6 3.2 0.00 0.00 0.00 55 1015.0
20260508155235 13 259 4.8 9.7 0.00 0.00 0.00 57 1015.2
20260508154732 12 249 4.8 8.0 0.00 0.00 0.00 58 1015.2
20260508154230 12 287 4.8 4.8 0.00 0.00 0.00 58 1015.1
20260508153726 12 84 3.2 3.2 0.00 0.00 0.00 58 1015.2
20260508153223 12 168 6.4 9.7 0.00 0.00 0.00 57 1015.2
20260508152720 12 202 4.8 4.8 0.00 0.00 0.00 58 1015.1
20260508152215 12 178 3.2 8.0 0.00 0.00 0.00 59 1015.3
20260508151712 12 273 8.0 11.3 0.00 0.00 0.00 57 1015.0
20260508151209 11 293 1.6 3.2 0.00 0.00 0.00 59 1015.3
20260508150706 11 164 6.4 9.7 0.00 0.00 0.00 57 1015.2
20260508150203 11 289 6.4 9.7 0.00 0.00 0.00 60 1015.3
20260508145658 11 188 3.2 4.8 0.00 0.00 0.00 60 1015.1
20260508145154 11 226 4.8 9.7 0.00 0.00 0.00 58 1015.5
20260508144652 11 211 3.2 3.2 0.00 0.00 0.00 58 1015.2
20260508144150 11 232 3.2 3.2 0.00 0.00 0.00 56 1015.2
20260508143647 11 293 4.8 8.0 0.00 0.00 0.00 58 1015.3
20260508143144 11 198 3.2 3.2 0.00 0.00 0.00 56 1015.2
20260508142640 11 199 6.4 11.3 0.00 0.00 0.00 58 1015.3
20260508142137 11 201 4.8 8.0 0.00 0.00 0.00 58 1015.1
20260508141633 10 254 1.6 1.6 0.00 0.00 0.00 61 1015.1
20260508141131 10 289 4.8 4.8 0.00 0.00 0.00 62 1015.2
20260508140629 9 270 3.2 4.8 0.00 0.00 0.00 63 1015.3
20260508140125 9 209 3.2 4.8 0.00 0.00 0.00 64 1015.5
20260508135620 9 277 4.8 4.8 0.00 0.00 0.00 64 1015.4